BREEZE-M R/B, 39128

Orbit data source: Space-Track

BREEZE-M R/B, 39128 is space debris in HEO originally from a launch on Mon, 15 Apr 2013 UTC launched from the Tyuratam Missile And Space Complex (TTMTR). Debris objects in space refer to the collection of defunct objects orbiting the Earth. Examples of debris include non-operational satellites, rocket bodies, and fragments generated from explosions, collisions, or faulty payload assembly.

Loading next visibility...
Identifier
39128, 2013-014B
Orbit
HEO
Country
Flag of CISCIS
Related business
Manufacturer
Khrunichev
Mission
Spacecraft
Bus & Motor
BRIZ, Unknown motor
Mass
~1,600 kg wet, 1,600 kg dry
Launch date (UTC)
2013-04-15 (13 years ago)
Launch vehicle
Unknown
Launch site
Tyuratam Missile And Space Complex (TTMTR)
Object type
Payload
Rocket body
Debris
Shape & HBR
Cyl, 2.0 m
Radar Cross Section
15.135 m², Large (>1 m²)

Expand to show TLE details & history
Last TLE update: 2 days ago

TLE from 2 days ago
0 BREEZE-M R/B
1 39128U 13014B   26207.69269950 -.00000082  00000-0  00000-0 0  9996
2 39128  15.7507   0.0686 4800245 217.6410  96.6266  1.90429212 92370
Epoch: 2026-07-26T16:37Z
TLE epoch observation values (Epoch: 2026-07-26T16:37:29.236Z)
Latitude
-0.00001°
Longitude
166.33612°
Altitude
27,748.41 km
Speed
2.977 km/s
True Right ascension
00h 00m 22s
True Declination
0° 00' 00"
Sunlit
Object was in daylight at epoch
Visualization orbit readout
Latitude
Unknown
Longitude
Unknown
Altitude
Unknown
Speed
Unknown
Apparent Right ascension
Unknown
Apparent Declination
Unknown
Sunlit
N/A
Visualization observer readout
Local Sidereal Time
21:21:38
Azimuth
Unknown
Elevation
Unknown
Doppler factor
Unknown
Orbital elements
Apogee altitude
34,317.573 km
Perigee altitude
7,919.446 km
Semi-major axis
27,496.646 km
Eccentricity
0.48002
Inclination
15.7507°
RAAN
0.0686°
Arg. of periapsis
217.641°
True anomaly
142.47026°
Mean anomaly
96.6266°
Eccentric anomaly
120.35867°
Mean motion
0.47602 °/min
Orbital period
756.27 mins
BSTAR
0
Loading maneuver chart data...
Computing Atmospheric mass density...
Loading historical data...
Loading historical data...
Loading historical data...
Loading historical data...
Loading historical data...
Loading historical data...
Loading historical data...
Other satellites on launch #14 in the year 2013 (2013-04-15 UTC)

Documentation

Showing up to 5 results
|